Location: Heilwood
(40.6210°N, 78.9150°W)
Time: 03:51:02
(UTC-04:00)

BREEZE-M DEB (TANK) - Visible Passes

Search period start: 24 April 2014 00:00
Search period end: 04 May 2014 00:00
Orbit: 290 x 16110 km, 49.5° (Epoch: 24 April)

Date Brightness Start Highest point End Pass type
(mag) Time Alt. Az. Time Alt. Az. Time Alt. Az.
27 Apr 4.8 20:29:46 10° WNW 20:36:15 22° WSW 20:39:11 10° SSW visible
28 Apr 5.4 20:52:47 10° WNW 20:55:48 13° WSW 20:57:49 10° SW visible
02 May 10.6 05:54:24 10° ESE 06:27:53 13° E 06:50:46 10° ENE visible
03 May 10.1 05:49:04 10° ESE 06:47:35 19° E 07:19:45 10° ENE visible
